Starlink 33607

operational
NORAD ID: 63323 Int'l Des: 2025-057 Owner: SPXS Country: US Constellation: starlink
LEOCIRCULAR

Starlink 33607について

説明を読み込み中...

リアルタイム位置

3D地球を読み込み中...

次回通過

高度履歴

Altitude vs Time

uPlot chart will show altitude changes over time

軌道要素

1 63323U 25057S 25308.57792862 .00027613 00000-0 10075-2 0 9994
2 63323 43.0038 17.3820 0001741 278.1190 81.9464 15.27633365 36607
Epoch: Nov 4, 2025 • Age: 10 hours

現在のステータス

高度 482.4 km
速度 7.63 km/s
衛星直下点 12.05°N, 137.48°E
打ち上げ日 Mar 18, 2025
運用期間 0.6 years
タイプ internet

技術仕様

分類 Payload
質量 575.00 kg
乾燥質量 530.00 kg
総質量 575.00 kg
長さ 0.30 m
直径 4.10 m
スパン 29.00 m
形状 Box + pan
製造者 SPXS
バスタイプ Starlink V2MO
フェーズステータス In Orbit
所有者/国 SPXS/US

大規模コンステレーション

Loading constellations...